Location: Pisa
(43.7170°N, 10.3830°E)
Time: 23:50:33
(UTC+02:00)

ISS - Pass Details

Date: 12 May 2021
Orbit: 417 x 422 km, 51.6° (Epoch: 23 June)

Event Time Altitude Azimuth Distance (km) Brightness Sun altitude
Exits shadow 01:17:32 14° 40° (NE) 1,265 -0.8 -28.1°
Drops below altitude 10° 01:18:14 10° 46° (NE) 1,508 -0.4 -28.1°
Sets 01:20:29 0° 57° (ENE) 2,376 0.5 -28.1°
